Year,Month,Day,Hour,Minute,Value (Times are PST for temperature in C)
2019,03,19,00,00,12.60
2019,03,19,00,01,12.60
2019,03,19,00,02,12.40
2019,03,19,00,03,12.40
2019,03,19,00,04,12.40
2019,03,19,00,05,12.30
2019,03,19,00,06,12.20
2019,03,19,00,07,12.20
2019,03,19,00,08,12.20
2019,03,19,00,09,12.20
2019,03,19,00,10,12.20
2019,03,19,00,11,12.10
2019,03,19,00,12,11.90
2019,03,19,00,13,12.00
2019,03,19,00,14,11.90
2019,03,19,00,15,11.80
2019,03,19,00,16,11.70
2019,03,19,00,17,11.60
2019,03,19,00,18,11.60
2019,03,19,00,19,11.50
2019,03,19,00,20,11.40
2019,03,19,00,21,11.50
2019,03,19,00,22,11.90
2019,03,19,00,23,12.20
2019,03,19,00,24,12.40
2019,03,19,00,25,12.60
2019,03,19,00,26,13.00
2019,03,19,00,27,13.20
2019,03,19,00,28,13.10
2019,03,19,00,29,12.80
2019,03,19,00,30,12.80
2019,03,19,00,31,12.70
2019,03,19,00,32,12.90
2019,03,19,00,33,12.90
2019,03,19,00,34,12.90
2019,03,19,00,35,12.80
2019,03,19,00,36,12.90
2019,03,19,00,37,12.90
2019,03,19,00,38,13.10
2019,03,19,00,39,13.30
2019,03,19,00,40,13.50
2019,03,19,00,41,13.50
2019,03,19,00,42,13.40
2019,03,19,00,43,13.40
2019,03,19,00,44,13.30
2019,03,19,00,45,13.20
2019,03,19,00,46,13.20
2019,03,19,00,47,13.20
2019,03,19,00,48,13.00
2019,03,19,00,49,12.80
2019,03,19,00,50,12.60
2019,03,19,00,51,12.50
2019,03,19,00,52,12.40
2019,03,19,00,53,12.40
2019,03,19,00,54,12.40
2019,03,19,00,55,12.50
2019,03,19,00,56,12.60
2019,03,19,00,57,12.70
2019,03,19,00,58,12.70
2019,03,19,00,59,12.80
2019,03,19,01,00,12.80
2019,03,19,01,01,12.80
2019,03,19,01,02,12.90
2019,03,19,01,03,13.00
2019,03,19,01,04,13.00
2019,03,19,01,05,12.90
2019,03,19,01,06,12.90
2019,03,19,01,07,12.90
2019,03,19,01,08,12.90
2019,03,19,01,09,12.90
2019,03,19,01,10,12.90
2019,03,19,01,11,12.90
2019,03,19,01,12,12.90
2019,03,19,01,13,13.00
2019,03,19,01,14,13.10
2019,03,19,01,15,13.10
2019,03,19,01,16,13.10
2019,03,19,01,17,13.00
2019,03,19,01,18,13.00
2019,03,19,01,19,12.90
2019,03,19,01,20,12.90
2019,03,19,01,21,12.90
2019,03,19,01,22,12.90
2019,03,19,01,23,12.80
2019,03,19,01,24,12.70
2019,03,19,01,25,12.70
2019,03,19,01,26,12.70
2019,03,19,01,27,12.70
2019,03,19,01,28,12.70
2019,03,19,01,29,12.60
2019,03,19,01,30,12.70
2019,03,19,01,31,12.70
2019,03,19,01,32,12.70
2019,03,19,01,33,12.70
2019,03,19,01,34,12.70
2019,03,19,01,35,12.70
2019,03,19,01,36,12.70
2019,03,19,01,37,12.60
2019,03,19,01,38,12.60
2019,03,19,01,39,12.60
2019,03,19,01,40,12.60
2019,03,19,01,41,12.60
2019,03,19,01,42,12.60
2019,03,19,01,43,12.50
2019,03,19,01,44,12.50
2019,03,19,01,45,12.40
2019,03,19,01,46,12.30
2019,03,19,01,47,12.30
2019,03,19,01,48,12.20
2019,03,19,01,49,12.10
2019,03,19,01,50,12.30
2019,03,19,01,51,12.40
2019,03,19,01,52,12.50
2019,03,19,01,53,12.50
2019,03,19,01,54,12.40
2019,03,19,01,55,12.30
2019,03,19,01,56,12.40
2019,03,19,01,57,12.40
2019,03,19,01,58,12.50
2019,03,19,01,59,12.60
2019,03,19,02,00,12.70
2019,03,19,02,01,12.70
2019,03,19,02,02,12.80
2019,03,19,02,03,12.80
2019,03,19,02,04,12.70
2019,03,19,02,05,12.70
2019,03,19,02,06,12.60
2019,03,19,02,07,12.60
2019,03,19,02,08,12.50
2019,03,19,02,09,12.50
2019,03,19,02,10,12.60
2019,03,19,02,11,12.70
2019,03,19,02,12,12.70
2019,03,19,02,13,12.80
2019,03,19,02,14,12.80
2019,03,19,02,15,12.90
2019,03,19,02,16,12.90
2019,03,19,02,17,12.90
2019,03,19,02,18,12.90
2019,03,19,02,19,12.80
2019,03,19,02,20,12.70
2019,03,19,02,21,12.60
2019,03,19,02,22,12.50
2019,03,19,02,23,12.30
2019,03,19,02,24,12.10
2019,03,19,02,25,12.10
2019,03,19,02,26,12.00
2019,03,19,02,27,12.00
2019,03,19,02,28,12.00
2019,03,19,02,29,12.30
2019,03,19,02,30,12.40
2019,03,19,02,31,12.40
2019,03,19,02,32,12.40
2019,03,19,02,33,12.60
2019,03,19,02,34,12.70
2019,03,19,02,35,12.80
2019,03,19,02,36,12.90
2019,03,19,02,37,12.80
2019,03,19,02,38,12.80
2019,03,19,02,39,12.80
2019,03,19,02,40,12.70
2019,03,19,02,41,12.60
2019,03,19,02,42,12.50
2019,03,19,02,43,12.30
2019,03,19,02,44,12.30
2019,03,19,02,45,12.20
2019,03,19,02,46,12.30
2019,03,19,02,47,12.30
2019,03,19,02,48,12.30
2019,03,19,02,49,12.20
2019,03,19,02,50,12.10
2019,03,19,02,51,12.20
2019,03,19,02,52,12.20
2019,03,19,02,53,12.10
2019,03,19,02,54,12.00
2019,03,19,02,55,11.70
2019,03,19,02,56,11.40
2019,03,19,02,57,11.30
2019,03,19,02,58,11.30
2019,03,19,02,59,11.30
2019,03,19,03,00,11.30
2019,03,19,03,01,11.40
2019,03,19,03,02,11.40
2019,03,19,03,03,11.50
2019,03,19,03,04,11.60
2019,03,19,03,05,11.50
2019,03,19,03,06,11.60
2019,03,19,03,07,11.60
2019,03,19,03,08,11.70
2019,03,19,03,09,11.80
2019,03,19,03,10,11.80
2019,03,19,03,11,11.70
2019,03,19,03,12,11.60
2019,03,19,03,13,11.40
2019,03,19,03,14,11.40
2019,03,19,03,15,11.50
2019,03,19,03,16,11.50
2019,03,19,03,17,11.60
2019,03,19,03,18,11.60
2019,03,19,03,19,11.50
2019,03,19,03,20,11.60
2019,03,19,03,21,11.60
2019,03,19,03,22,11.50
2019,03,19,03,23,11.40
2019,03,19,03,24,11.50
2019,03,19,03,25,11.60
2019,03,19,03,26,11.70
2019,03,19,03,27,11.70
2019,03,19,03,28,11.70
2019,03,19,03,29,11.70
2019,03,19,03,30,11.60
2019,03,19,03,31,11.60
2019,03,19,03,32,11.70
2019,03,19,03,33,11.60
2019,03,19,03,34,11.50
2019,03,19,03,35,11.50
2019,03,19,03,36,11.40
2019,03,19,03,37,11.40
2019,03,19,03,38,11.30
2019,03,19,03,39,11.30
2019,03,19,03,40,11.30
2019,03,19,03,41,11.30
2019,03,19,03,42,11.30
2019,03,19,03,43,11.30
2019,03,19,03,44,11.20
2019,03,19,03,45,11.20
2019,03,19,03,46,11.10
2019,03,19,03,47,11.20
2019,03,19,03,48,11.20
2019,03,19,03,49,11.30
2019,03,19,03,50,11.30
2019,03,19,03,51,11.20
2019,03,19,03,52,11.20
2019,03,19,03,53,11.10
2019,03,19,03,54,11.10
2019,03,19,03,55,11.00
2019,03,19,03,56,11.00
2019,03,19,03,57,11.00
2019,03,19,03,58,11.00
2019,03,19,03,59,11.10
2019,03,19,04,00,11.20
2019,03,19,04,01,11.30
2019,03,19,04,02,11.30
2019,03,19,04,03,11.30
2019,03,19,04,04,11.40
2019,03,19,04,05,11.40
2019,03,19,04,06,11.40
2019,03,19,04,07,11.40
2019,03,19,04,08,11.40
2019,03,19,04,09,11.40
2019,03,19,04,10,11.30
2019,03,19,04,11,11.30
2019,03,19,04,12,11.30
2019,03,19,04,13,11.20
2019,03,19,04,14,11.20
2019,03,19,04,15,11.10
2019,03,19,04,16,11.10
2019,03,19,04,17,11.10
2019,03,19,04,18,11.10
2019,03,19,04,19,11.10
2019,03,19,04,20,11.10
2019,03,19,04,21,11.20
2019,03,19,04,22,11.20
2019,03,19,04,23,11.20
2019,03,19,04,24,11.20
2019,03,19,04,25,11.20
2019,03,19,04,26,11.30
2019,03,19,04,27,11.30
2019,03,19,04,28,11.30
2019,03,19,04,29,11.30
2019,03,19,04,30,11.30
2019,03,19,04,31,11.30
2019,03,19,04,32,11.30
2019,03,19,04,33,11.30
2019,03,19,04,34,11.40
2019,03,19,04,35,11.30
2019,03,19,04,36,11.30
2019,03,19,04,37,11.30
2019,03,19,04,38,11.30
2019,03,19,04,39,11.30
2019,03,19,04,40,11.30
2019,03,19,04,41,11.30
2019,03,19,04,42,11.30
2019,03,19,04,43,11.30
2019,03,19,04,44,11.30
2019,03,19,04,45,11.30
2019,03,19,04,46,11.40
2019,03,19,04,47,11.40
2019,03,19,04,48,11.50
2019,03,19,04,49,11.60
2019,03,19,04,50,11.70
2019,03,19,04,51,11.70
2019,03,19,04,52,11.70
2019,03,19,04,53,11.70
2019,03,19,04,54,11.60
2019,03,19,04,55,11.60
2019,03,19,04,56,11.50
2019,03,19,04,57,11.30
2019,03,19,04,58,11.30
2019,03,19,04,59,11.30
2019,03,19,05,00,11.30
2019,03,19,05,01,11.30
2019,03,19,05,02,11.30
2019,03,19,05,03,11.30
2019,03,19,05,04,11.30
2019,03,19,05,05,11.30
2019,03,19,05,06,11.20
2019,03,19,05,07,11.30
2019,03,19,05,08,11.40
2019,03,19,05,09,11.40
2019,03,19,05,10,11.40
2019,03,19,05,11,11.50
2019,03,19,05,12,11.60
2019,03,19,05,13,11.60
2019,03,19,05,14,11.60
2019,03,19,05,15,11.70
2019,03,19,05,16,11.70
2019,03,19,05,17,11.60
2019,03,19,05,18,11.70
2019,03,19,05,19,11.70
2019,03,19,05,20,11.90
2019,03,19,05,21,12.00
2019,03,19,05,22,11.90
2019,03,19,05,23,11.80
2019,03,19,05,24,11.70
2019,03,19,05,25,11.60
2019,03,19,05,26,11.50
2019,03,19,05,27,11.40
2019,03,19,05,28,11.30
2019,03,19,05,29,11.30
2019,03,19,05,30,11.30
2019,03,19,05,31,11.60
2019,03,19,05,32,11.60
2019,03,19,05,33,11.60
2019,03,19,05,34,11.60
2019,03,19,05,35,11.50
2019,03,19,05,36,11.40
2019,03,19,05,37,11.20
2019,03,19,05,38,11.10
2019,03,19,05,39,11.10
2019,03,19,05,40,11.10
2019,03,19,05,41,11.10
2019,03,19,05,42,11.10
2019,03,19,05,43,10.90
2019,03,19,05,44,10.80
2019,03,19,05,45,10.70
2019,03,19,05,46,10.60
2019,03,19,05,47,10.70
2019,03,19,05,48,10.70
2019,03,19,05,49,10.80
2019,03,19,05,50,10.80
2019,03,19,05,51,10.80
2019,03,19,05,52,11.10
2019,03,19,05,53,11.20
2019,03,19,05,54,11.30
2019,03,19,05,55,11.20
2019,03,19,05,56,11.20
2019,03,19,05,57,11.20
2019,03,19,05,58,10.90
2019,03,19,05,59,10.70
2019,03,19,06,00,10.60
2019,03,19,06,01,10.50
2019,03,19,06,02,10.50
2019,03,19,06,03,10.70
2019,03,19,06,04,10.90
2019,03,19,06,05,10.90
2019,03,19,06,06,10.80
2019,03,19,06,07,10.50
2019,03,19,06,08,10.30
2019,03,19,06,09,10.20
2019,03,19,06,10,10.20
2019,03,19,06,11,10.30
2019,03,19,06,12,10.30
2019,03,19,06,13,10.30
2019,03,19,06,14,10.30
2019,03,19,06,15,10.20
2019,03,19,06,16,10.20
2019,03,19,06,17,10.30
2019,03,19,06,18,10.30
2019,03,19,06,19,10.40
2019,03,19,06,20,10.40
2019,03,19,06,21,10.40
2019,03,19,06,22,10.30
2019,03,19,06,23,10.30
2019,03,19,06,24,10.30
2019,03,19,06,25,10.20
2019,03,19,06,26,10.10
2019,03,19,06,27,10.20
2019,03,19,06,28,10.20
2019,03,19,06,29,10.30
2019,03,19,06,30,10.20
2019,03,19,06,31,10.10
2019,03,19,06,32,10.10
2019,03,19,06,33,10.20
2019,03,19,06,34,10.20
2019,03,19,06,35,10.30
2019,03,19,06,36,10.20
2019,03,19,06,37,10.10
2019,03,19,06,38,10.00
2019,03,19,06,39,10.00
2019,03,19,06,40,10.00
2019,03,19,06,41,10.00
2019,03,19,06,42,10.10
2019,03,19,06,43,10.00
2019,03,19,06,44,10.00
2019,03,19,06,45,9.90
2019,03,19,06,46,9.90
2019,03,19,06,47,9.90
2019,03,19,06,48,10.00
2019,03,19,06,49,10.00
2019,03,19,06,50,10.00
2019,03,19,06,51,9.90
2019,03,19,06,52,9.90
2019,03,19,06,53,9.70
2019,03,19,06,54,9.60
2019,03,19,06,55,9.70
2019,03,19,06,56,9.70
2019,03,19,06,57,9.60
2019,03,19,06,58,9.50
2019,03,19,06,59,9.50
2019,03,19,07,00,9.60
2019,03,19,07,01,9.60
2019,03,19,07,02,9.50
2019,03,19,07,03,9.50
2019,03,19,07,04,9.40
2019,03,19,07,05,9.40
2019,03,19,07,06,9.50
2019,03,19,07,07,9.50
2019,03,19,07,08,9.50
2019,03,19,07,09,9.50
2019,03,19,07,10,9.40
2019,03,19,07,11,9.30
2019,03,19,07,12,9.30
2019,03,19,07,13,9.10
2019,03,19,07,14,9.10
2019,03,19,07,15,9.00
2019,03,19,07,16,9.10
2019,03,19,07,17,9.10
2019,03,19,07,18,9.10
2019,03,19,07,19,9.10
2019,03,19,07,20,9.10
2019,03,19,07,21,9.10
2019,03,19,07,22,9.00
2019,03,19,07,23,9.00
2019,03,19,07,24,9.10
2019,03,19,07,25,9.20
2019,03,19,07,26,9.30
2019,03,19,07,27,9.20
2019,03,19,07,28,9.20
2019,03,19,07,29,9.20
2019,03,19,07,30,9.30
2019,03,19,07,31,9.30
2019,03,19,07,32,9.40
2019,03,19,07,33,9.40
2019,03,19,07,34,9.30
2019,03,19,07,35,9.30
2019,03,19,07,36,9.30
2019,03,19,07,37,9.30
2019,03,19,07,38,9.30
2019,03,19,07,39,9.40
2019,03,19,07,40,9.40
2019,03,19,07,41,9.40
2019,03,19,07,42,9.50
2019,03,19,07,43,9.50
2019,03,19,07,44,9.50
2019,03,19,07,45,9.50
2019,03,19,07,46,9.50
2019,03,19,07,47,9.50
2019,03,19,07,48,9.60
2019,03,19,07,49,9.60
2019,03,19,07,50,9.60
2019,03,19,07,51,9.60
2019,03,19,07,52,9.60
2019,03,19,07,53,9.60
2019,03,19,07,54,9.60
2019,03,19,07,55,9.60
2019,03,19,07,56,9.60
2019,03,19,07,57,9.60
2019,03,19,07,58,9.60
2019,03,19,07,59,9.50
2019,03,19,08,00,9.50
2019,03,19,08,01,9.50
2019,03,19,08,02,9.60
2019,03,19,08,03,9.60
2019,03,19,08,04,9.60
2019,03,19,08,05,9.70
2019,03,19,08,06,9.70
2019,03,19,08,07,9.70
2019,03,19,08,08,9.70
2019,03,19,08,09,9.80
2019,03,19,08,10,9.80
2019,03,19,08,11,9.80
2019,03,19,08,12,9.90
2019,03,19,08,13,9.90
2019,03,19,08,14,10.00
2019,03,19,08,15,10.00
2019,03,19,08,16,10.00
2019,03,19,08,17,10.00
2019,03,19,08,18,10.10
2019,03,19,08,19,10.10
2019,03,19,08,20,10.20
2019,03,19,08,21,10.20
2019,03,19,08,22,10.30
2019,03,19,08,23,10.30
2019,03,19,08,24,10.30
2019,03,19,08,25,10.30
2019,03,19,08,26,10.30
2019,03,19,08,27,10.40
2019,03,19,08,28,10.40
2019,03,19,08,29,10.50
2019,03,19,08,30,10.50
2019,03,19,08,31,10.50
2019,03,19,08,32,10.50
2019,03,19,08,33,10.50
2019,03,19,08,34,10.50
2019,03,19,08,35,10.50
2019,03,19,08,36,10.50
2019,03,19,08,37,10.60
2019,03,19,08,38,10.60
2019,03,19,08,39,10.50
2019,03,19,08,40,10.50
2019,03,19,08,41,10.50
2019,03,19,08,42,10.50
2019,03,19,08,43,10.50
2019,03,19,08,44,10.50
2019,03,19,08,45,10.60
2019,03,19,08,46,10.60
2019,03,19,08,47,10.60
2019,03,19,08,48,10.60
2019,03,19,08,49,10.70
2019,03,19,08,50,10.70
2019,03,19,08,51,10.70
2019,03,19,08,52,10.70
2019,03,19,08,53,10.70
2019,03,19,09,06,11.20
2019,03,19,09,07,11.20
2019,03,19,09,08,11.30
2019,03,19,09,09,11.30
2019,03,19,09,10,11.30
2019,03,19,09,11,11.30
2019,03,19,09,12,11.30
2019,03,19,09,13,11.30
2019,03,19,09,14,11.40
2019,03,19,09,15,11.50
2019,03,19,09,16,11.60
2019,03,19,09,17,11.60
2019,03,19,09,18,11.60
2019,03,19,09,19,11.70
2019,03,19,09,20,11.70
2019,03,19,09,21,11.70
2019,03,19,09,22,11.60
2019,03,19,09,23,11.70
2019,03,19,09,24,11.60
2019,03,19,09,25,11.60
2019,03,19,09,26,11.70
2019,03,19,09,27,11.80
2019,03,19,09,28,11.80
2019,03,19,09,29,11.90
2019,03,19,09,30,11.90
2019,03,19,09,31,11.80
2019,03,19,09,32,11.90
2019,03,19,09,33,11.90
2019,03,19,09,34,11.90
2019,03,19,09,35,11.90
2019,03,19,09,36,11.70
2019,03,19,09,37,11.70
2019,03,19,09,38,11.70
2019,03,19,09,39,11.80
2019,03,19,09,40,11.90
2019,03,19,09,41,12.00
2019,03,19,09,42,12.10
2019,03,19,09,43,12.20
2019,03,19,09,44,12.20
2019,03,19,09,45,12.30
2019,03,19,09,46,12.20
2019,03,19,09,47,12.20
2019,03,19,09,48,12.10
2019,03,19,09,49,12.10
2019,03,19,09,50,12.10
2019,03,19,09,51,12.10
2019,03,19,09,52,12.00
2019,03,19,09,53,11.90
2019,03,19,09,54,11.80
2019,03,19,09,55,11.70
2019,03,19,09,56,11.70
2019,03,19,09,57,11.70
2019,03,19,09,58,11.80
2019,03,19,09,59,11.70
2019,03,19,10,00,11.70
2019,03,19,10,01,11.70
2019,03,19,10,02,11.80
2019,03,19,10,03,11.80
2019,03,19,10,04,11.80
2019,03,19,10,05,11.90
2019,03,19,10,06,11.90
2019,03,19,10,07,11.90
2019,03,19,10,08,11.90
2019,03,19,10,09,12.00
2019,03,19,10,10,12.10
2019,03,19,10,11,12.10
2019,03,19,10,12,12.10
2019,03,19,10,13,12.10
2019,03,19,10,14,12.10
2019,03,19,10,15,12.20
2019,03,19,10,16,12.20
2019,03,19,10,17,12.20
2019,03,19,10,18,12.20
2019,03,19,10,19,12.30
2019,03,19,10,20,12.30
2019,03,19,10,21,12.30
2019,03,19,10,22,12.20
2019,03,19,10,23,12.20
2019,03,19,10,24,12.10
2019,03,19,10,25,12.10
2019,03,19,10,26,12.10
2019,03,19,10,27,12.10
2019,03,19,10,28,12.10
2019,03,19,10,29,12.20
2019,03,19,10,30,12.20
2019,03,19,10,31,12.30
2019,03,19,10,32,12.30
2019,03,19,10,33,12.30
2019,03,19,10,34,12.40
2019,03,19,10,35,12.40
2019,03,19,10,36,12.50
2019,03,19,10,37,12.50
2019,03,19,10,38,12.50
2019,03,19,10,39,12.50
2019,03,19,10,40,12.50
2019,03,19,10,41,12.40
2019,03,19,10,42,12.50
2019,03,19,10,43,12.40
2019,03,19,10,44,12.30
2019,03,19,10,45,12.20
2019,03,19,10,46,12.30
2019,03,19,10,47,12.40
2019,03,19,10,48,12.50
2019,03,19,10,49,12.70
2019,03,19,10,50,12.80
2019,03,19,10,51,12.70
2019,03,19,10,52,12.70
2019,03,19,10,53,12.60
2019,03,19,10,54,12.80
2019,03,19,10,55,12.80
2019,03,19,10,56,12.80
2019,03,19,10,57,12.80
2019,03,19,10,58,12.80
2019,03,19,10,59,12.90
2019,03,19,11,00,12.90
2019,03,19,11,01,12.80
2019,03,19,11,02,12.80
2019,03,19,11,03,12.70
2019,03,19,11,04,12.50
2019,03,19,11,05,12.30
2019,03,19,11,06,12.40
2019,03,19,11,07,12.50
2019,03,19,11,08,12.70
2019,03,19,11,09,12.70
2019,03,19,11,10,13.00
2019,03,19,11,11,13.10
2019,03,19,11,12,13.10
2019,03,19,11,13,13.10
2019,03,19,11,14,13.10
2019,03,19,11,15,13.00
2019,03,19,11,16,12.90
2019,03,19,11,17,12.90
2019,03,19,11,18,13.00
2019,03,19,11,19,13.30
2019,03,19,11,20,13.30
2019,03,19,11,21,13.30
2019,03,19,11,22,13.10
2019,03,19,11,23,12.80
2019,03,19,11,24,12.80
2019,03,19,11,25,12.70
2019,03,19,11,26,12.30
2019,03,19,11,27,12.20
2019,03,19,11,28,12.20
2019,03,19,11,29,12.30
2019,03,19,11,30,12.30
2019,03,19,11,31,12.40
2019,03,19,11,32,12.40
2019,03,19,11,33,12.40
2019,03,19,11,34,12.40
2019,03,19,11,35,12.50
2019,03,19,11,36,12.60
2019,03,19,11,37,12.60
2019,03,19,11,38,12.60
2019,03,19,11,39,12.60
2019,03,19,11,40,12.50
2019,03,19,11,41,12.50
2019,03,19,11,42,12.50
2019,03,19,11,43,12.50
2019,03,19,11,44,12.50
2019,03,19,11,45,12.70
2019,03,19,11,46,12.80
2019,03,19,11,47,12.70
2019,03,19,11,48,12.70
2019,03,19,11,49,12.80
2019,03,19,11,50,12.80
2019,03,19,11,51,12.70
2019,03,19,11,52,12.60
2019,03,19,11,53,12.60
2019,03,19,11,54,12.70
2019,03,19,11,55,12.70
2019,03,19,11,56,12.70
2019,03,19,11,57,12.60
2019,03,19,11,58,12.70
2019,03,19,11,59,12.60
2019,03,19,12,00,12.50
2019,03,19,12,01,12.30
2019,03,19,12,02,12.30
2019,03,19,12,03,12.30
2019,03,19,12,04,12.40
2019,03,19,12,05,12.40
2019,03,19,12,06,12.30
2019,03,19,12,07,12.40
2019,03,19,12,08,12.40
2019,03,19,12,09,12.50
2019,03,19,12,10,12.70
2019,03,19,12,11,12.80
2019,03,19,12,12,12.90
2019,03,19,12,13,13.10
2019,03,19,12,14,13.00
2019,03,19,12,15,12.90
2019,03,19,12,16,12.80
2019,03,19,12,17,12.70
2019,03,19,12,18,12.60
2019,03,19,12,19,12.60
2019,03,19,12,20,12.60
2019,03,19,12,21,12.70
2019,03,19,12,22,12.80
2019,03,19,12,23,12.90
2019,03,19,12,24,12.80
2019,03,19,12,25,12.60
2019,03,19,12,26,12.40
2019,03,19,12,27,12.40
2019,03,19,12,28,12.40
2019,03,19,12,29,12.30
2019,03,19,12,30,12.30
2019,03,19,12,31,12.40
2019,03,19,12,32,12.60
2019,03,19,12,33,12.60
2019,03,19,12,34,12.60
2019,03,19,12,35,12.60
2019,03,19,12,36,12.80
2019,03,19,12,37,12.70
2019,03,19,12,38,12.70
2019,03,19,12,39,12.60
2019,03,19,12,40,12.50
2019,03,19,12,41,12.60
2019,03,19,12,42,12.60
2019,03,19,12,43,12.40
2019,03,19,12,44,12.30
2019,03,19,12,45,12.30
2019,03,19,12,46,12.30
2019,03,19,12,47,12.30
2019,03,19,12,48,12.30
2019,03,19,12,49,12.30
2019,03,19,12,50,12.30
2019,03,19,12,51,12.40
2019,03,19,12,52,12.40
2019,03,19,12,53,12.40
2019,03,19,12,54,12.60
2019,03,19,12,55,12.60
2019,03,19,12,56,12.60
2019,03,19,12,57,12.70
2019,03,19,12,58,12.80
2019,03,19,12,59,12.80
2019,03,19,13,00,12.90
2019,03,19,13,01,12.90
2019,03,19,13,02,13.00
2019,03,19,13,03,13.00
2019,03,19,13,04,13.20
2019,03,19,13,05,13.40
2019,03,19,13,06,13.60
2019,03,19,13,07,13.80
2019,03,19,13,08,13.80
2019,03,19,13,09,13.80
2019,03,19,13,10,14.00
2019,03,19,13,11,14.10
2019,03,19,13,12,14.20
2019,03,19,13,13,14.20
2019,03,19,13,14,14.20
2019,03,19,13,15,14.20
2019,03,19,13,16,14.20
2019,03,19,13,17,14.20
2019,03,19,13,18,14.20
2019,03,19,13,19,14.30
2019,03,19,13,20,14.40
2019,03,19,13,21,14.60
2019,03,19,13,22,14.70
2019,03,19,13,23,14.70
2019,03,19,13,24,14.70
2019,03,19,13,25,14.70
2019,03,19,13,26,14.70
2019,03,19,13,27,14.70
2019,03,19,13,28,14.80
2019,03,19,13,29,15.00
2019,03,19,13,30,15.10
2019,03,19,13,31,15.00
2019,03,19,13,32,14.90
2019,03,19,13,33,14.90
2019,03,19,13,34,14.90
2019,03,19,13,35,14.90
2019,03,19,13,36,15.00
2019,03,19,13,37,15.00
2019,03,19,13,38,14.90
2019,03,19,13,39,14.90
2019,03,19,13,40,14.80
2019,03,19,13,41,14.80
2019,03,19,13,42,14.80
2019,03,19,13,43,14.90
2019,03,19,13,44,14.90
2019,03,19,13,45,15.00
2019,03,19,13,46,15.10
2019,03,19,13,47,15.20
2019,03,19,13,48,15.20
2019,03,19,13,49,15.30
2019,03,19,13,50,15.30
2019,03,19,13,51,15.30
2019,03,19,13,52,15.30
2019,03,19,13,53,15.40
2019,03,19,13,54,15.40
2019,03,19,13,55,15.50
2019,03,19,13,56,15.50
2019,03,19,13,57,15.60
2019,03,19,13,58,15.70
2019,03,19,13,59,15.80
2019,03,19,14,00,15.90
2019,03,19,14,01,15.90
2019,03,19,14,02,15.90
2019,03,19,14,03,16.00
2019,03,19,14,04,15.90
2019,03,19,14,05,16.00
2019,03,19,14,06,16.00
2019,03,19,14,07,16.10
2019,03,19,14,08,16.20
2019,03,19,14,09,16.20
2019,03,19,14,10,16.20
2019,03,19,14,11,16.20
2019,03,19,14,12,16.30
2019,03,19,14,13,16.30
2019,03,19,14,14,16.30
2019,03,19,14,15,16.30
2019,03,19,14,16,16.40
2019,03,19,14,17,16.40
2019,03,19,14,18,16.40
2019,03,19,14,19,16.40
2019,03,19,14,20,16.40
2019,03,19,14,21,16.40
2019,03,19,14,22,16.50
2019,03,19,14,23,16.60
2019,03,19,14,24,16.70
2019,03,19,14,25,16.70
2019,03,19,14,26,16.70
2019,03,19,14,27,16.70
2019,03,19,14,28,16.80
2019,03,19,14,29,16.80
2019,03,19,14,30,16.70
2019,03,19,14,31,16.70
2019,03,19,14,32,16.60
2019,03,19,14,33,16.60
2019,03,19,14,34,16.50
2019,03,19,14,35,16.50
2019,03,19,14,36,16.60
2019,03,19,14,37,16.60
2019,03,19,14,38,16.50
2019,03,19,14,39,16.50
2019,03,19,14,40,16.50
2019,03,19,14,41,16.50
2019,03,19,14,42,16.40
2019,03,19,14,43,16.40
2019,03,19,14,44,16.30
2019,03,19,14,45,16.30
2019,03,19,14,46,16.30
2019,03,19,14,47,16.30
2019,03,19,14,48,16.20
2019,03,19,14,49,16.20
2019,03,19,14,50,16.20
2019,03,19,14,51,16.30
2019,03,19,14,52,16.40
2019,03,19,14,53,16.40
2019,03,19,14,54,16.50
2019,03,19,14,55,16.50
2019,03,19,14,56,16.60
2019,03,19,14,57,16.70
2019,03,19,14,58,16.70
2019,03,19,14,59,16.70
2019,03,19,15,00,16.70
2019,03,19,15,01,16.70
2019,03,19,15,02,16.70
2019,03,19,15,03,16.80
2019,03,19,15,04,16.90
2019,03,19,15,05,17.00
2019,03,19,15,06,17.10
2019,03,19,15,07,17.10
2019,03,19,15,08,17.20
2019,03,19,15,09,17.20
2019,03,19,15,10,17.20
2019,03,19,15,11,17.10
2019,03,19,15,12,17.10
2019,03,19,15,13,17.10
2019,03,19,15,14,17.20
2019,03,19,15,15,17.30
2019,03,19,15,16,17.30
2019,03,19,15,17,17.30
2019,03,19,15,18,17.20
2019,03,19,15,19,17.20
2019,03,19,15,20,17.30
2019,03,19,15,21,17.30
2019,03,19,15,22,17.30
2019,03,19,15,23,17.30
2019,03,19,15,24,17.40
2019,03,19,15,25,17.50
2019,03,19,15,26,17.60
2019,03,19,15,27,17.60
2019,03,19,15,28,17.60
2019,03,19,15,29,17.60
2019,03,19,15,30,17.60
2019,03,19,15,31,17.60
2019,03,19,15,32,17.70
2019,03,19,15,33,17.80
2019,03,19,15,34,17.90
2019,03,19,15,35,18.00
2019,03,19,15,36,18.10
2019,03,19,15,37,18.20
2019,03,19,15,38,18.20
2019,03,19,15,39,18.10
2019,03,19,15,40,18.20
2019,03,19,15,41,18.20
2019,03,19,15,42,18.20
2019,03,19,15,43,18.30
2019,03,19,15,44,18.30
2019,03,19,15,45,18.40
2019,03,19,15,46,18.30
2019,03,19,15,47,17.70
2019,03,19,15,48,17.00
2019,03,19,15,49,16.70
2019,03,19,15,50,16.80
2019,03,19,15,51,17.00
2019,03,19,15,52,17.00
2019,03,19,15,53,17.10
2019,03,19,15,54,17.20
2019,03,19,15,55,17.50
2019,03,19,15,56,17.70
2019,03,19,15,57,17.90
2019,03,19,15,58,18.00
2019,03,19,15,59,18.00
2019,03,19,16,00,18.10
2019,03,19,16,01,18.30
2019,03,19,16,02,18.40
2019,03,19,16,03,18.50
2019,03,19,16,04,18.50
2019,03,19,16,05,18.50
2019,03,19,16,06,18.60
2019,03,19,16,07,18.60
2019,03,19,16,08,18.70
2019,03,19,16,09,18.70
2019,03,19,16,10,18.70
2019,03,19,16,11,18.70
2019,03,19,16,12,18.70
2019,03,19,16,13,18.60
2019,03,19,16,14,18.70
2019,03,19,16,15,18.70
2019,03,19,16,16,18.60
2019,03,19,16,17,18.60
2019,03,19,16,18,18.60
2019,03,19,16,19,18.60
2019,03,19,16,20,18.60
2019,03,19,16,21,18.60
2019,03,19,16,22,18.70
2019,03,19,16,23,18.50
2019,03,19,16,24,18.40
2019,03,19,16,25,18.40
2019,03,19,16,26,18.40
2019,03,19,16,27,18.30
2019,03,19,16,28,18.20
2019,03,19,16,29,18.20
2019,03,19,16,30,18.10
2019,03,19,16,31,17.90
2019,03,19,16,32,17.80
2019,03,19,16,33,17.90
2019,03,19,16,34,17.90
2019,03,19,16,35,18.00
2019,03,19,16,36,18.10
2019,03,19,16,37,18.10
2019,03,19,16,38,18.20
2019,03,19,16,39,18.20
2019,03,19,16,40,18.00
2019,03,19,16,41,18.00
2019,03,19,16,42,18.10
2019,03,19,16,43,18.10
2019,03,19,16,44,18.10
2019,03,19,16,45,18.10
2019,03,19,16,46,18.10
2019,03,19,16,47,18.20
2019,03,19,16,48,18.10
2019,03,19,16,49,18.10
2019,03,19,16,50,18.00
2019,03,19,16,51,17.90
2019,03,19,16,52,17.80
2019,03,19,16,53,17.70
2019,03,19,16,54,17.70
2019,03,19,16,55,17.70
2019,03,19,16,56,17.60
2019,03,19,16,57,17.60
2019,03,19,16,58,17.60
2019,03,19,16,59,17.60
2019,03,19,17,00,17.60
2019,03,19,17,01,17.60
2019,03,19,17,02,17.60
2019,03,19,17,03,17.50
2019,03,19,17,04,17.50
2019,03,19,17,05,17.50
2019,03,19,17,06,17.50
2019,03,19,17,07,17.40
2019,03,19,17,08,17.40
2019,03,19,17,09,17.50
2019,03,19,17,10,17.50
2019,03,19,17,11,17.50
2019,03,19,17,12,17.40
2019,03,19,17,13,17.50
2019,03,19,17,14,17.70
2019,03,19,17,15,17.80
2019,03,19,17,16,17.80
2019,03,19,17,17,17.90
2019,03,19,17,18,17.80
2019,03,19,17,19,17.60
2019,03,19,17,20,17.40
2019,03,19,17,21,17.40
2019,03,19,17,22,17.40
2019,03,19,17,23,17.40
2019,03,19,17,24,17.40
2019,03,19,17,25,17.40
2019,03,19,17,26,17.40
2019,03,19,17,27,17.50
2019,03,19,17,28,17.70
2019,03,19,17,29,17.60
2019,03,19,17,30,17.30
2019,03,19,17,31,17.10
2019,03,19,17,32,16.80
2019,03,19,17,33,16.70
2019,03,19,17,34,16.80
2019,03,19,17,35,17.00